Buxhansa — A8TQ5 — position and weather

sailwx.info

Track history (hours):
 
Tides and Currents Weather Stations Pressure Air Temp Water Temp Dewpoint Dewpoint Depression Visibility Wind Speed Wind Dir Waves Ship Positions

Buxhansa

Last reported at 2016-Sep-05 18:28 UTC. Time now 2016-Sep-25 00:13 UTC.
Position N 01°53' E 102°25'.
Warning: this ship's position is 19 days out of date.

Length 208 m; draft 9.4 m.

Type: Ship. MMSI: 636091849.

Date/timePositionNaut miles runAvg speedWind from/ knotsBaromVisibWave heightAir tempDewpointWater temp
2016-Sep-05 18:28N 01°53' E 102°25'  
2016-Aug-30 11:30N 01°13' E 103°41'7 7.1
2016-Aug-30 10:32N 01°16' E 103°47'0 0.0
2016-Aug-30 09:32N 01°16' E 103°47'0 0.0
2016-Aug-30 08:25N 01°16' E 103°47'0 0.0
2016-Aug-30 07:31N 01°16' E 103°47'0 0.0
2016-Aug-30 06:30N 01°16' E 103°47'0 0.0
2016-Aug-30 05:33N 01°16' E 103°47'0 0.0
2016-Aug-30 04:32N 01°16' E 103°47'0 0.0
2016-Aug-30 03:32N 01°16' E 103°47'0 0.0
2016-Aug-30 02:32N 01°16' E 103°47'0 0.0
2016-Aug-30 01:07N 01°16' E 103°47'0 0.0
2016-Aug-30 00:31N 01°16' E 103°47'0 0.0
2016-Aug-29 23:21N 01°16' E 103°47'1 1.4
2016-Aug-29 22:33N 01°15' E 103°46'8 8.1
2016-Aug-29 21:33N 01°14' E 103°55'10 8.3
2016-Aug-29 20:20N 01°16' E 104°04'  
Track history (hours):
 
Tides and Currents Weather Stations Pressure Air Temp Water Temp Dewpoint Dewpoint Depression Visibility Wind Speed Wind Dir Waves Ship Positions

Buxhansa

Last reported at 2016-Sep-05 18:28 UTC. Time now 2016-Sep-25 00:13 UTC.
Position N 01°53' E 102°25'.
Warning: this ship's position is 19 days out of date.

Length 208 m; draft 9.4 m.

Type: Ship. MMSI: 636091849.

Date/timePositionNaut miles runAvg speedWind from/ knotsBaromVisibWave heightAir tempDewpointWater temp
2016-Sep-05 18:28N 01°53' E 102°25'  
2016-Aug-30 11:30N 01°13' E 103°41'7 7.1
2016-Aug-30 10:32N 01°16' E 103°47'0 0.0
2016-Aug-30 09:32N 01°16' E 103°47'0 0.0
2016-Aug-30 08:25N 01°16' E 103°47'0 0.0
2016-Aug-30 07:31N 01°16' E 103°47'0 0.0
2016-Aug-30 06:30N 01°16' E 103°47'0 0.0
2016-Aug-30 05:33N 01°16' E 103°47'0 0.0
2016-Aug-30 04:32N 01°16' E 103°47'0 0.0
2016-Aug-30 03:32N 01°16' E 103°47'0 0.0
2016-Aug-30 02:32N 01°16' E 103°47'0 0.0
2016-Aug-30 01:07N 01°16' E 103°47'0 0.0
2016-Aug-30 00:31N 01°16' E 103°47'0 0.0
2016-Aug-29 23:21N 01°16' E 103°47'1 1.4
2016-Aug-29 22:33N 01°15' E 103°46'8 8.1
2016-Aug-29 21:33N 01°14' E 103°55'10 8.3
2016-Aug-29 20:20N 01°16' E 104°04'  

Dump ship's entire track history